Regional Weather Roundup
Issued by NWS Goodland, KS

Home | Current Version | Previous Version | Graphics & Text | Print | Product List | Glossary On
Versions: 1 2 3 4 5 6 7 8 9 10 11 12 13 14 15 16 17 18 19 20 21 22 23 24 25 26 27 28 29 30 31 32 33 34 35 36 37 38 39 40 41 42 43 44 45 46 47 48 49 50
000
ASUS43 KGLD 250859
RWRGLD

GOODLAND FORECAST AREA HOURLY WEATHER ROUNDUP
NATIONAL WEATHER SERVICE GOODLAND KS
300 AM MDT SAT APR 25 2015

...OFFICIAL OBSERVATIONS...

CITY           SKY/WX    TMP DP  RH WIND       PRES   REMARKS
GOODLAND KS    CLOUDY    49  41  74 NW9       29.63S
HILL CITY KS   CLOUDY    53  49  86 W14G22    29.53F
IMPERIAL NEB   MOCLDY    49  41  74 NW9       29.59F
MCCOOK NEB     CLOUDY    51  46  83 W15       29.53F
AKRON CO       CLOUDY    43  37  79 W9        29.67R
BURLINGTON CO  CLOUDY    46  39  76 NW7       29.66R
LIMON CO       CLEAR     37  33  85 N6        29.72R
$$

...UNOFFICIAL OBSERVATIONS...

CITY           SKY/WX    TMP DP  RH WIND       PRES   REMARKS
COLBY KS       PTCLDY    48  46  93 NW3       29.62R
LENORA KS        N/A     51  32  48 MISG        N/A
NORTON KS      DRIZZLE   54  45  71 W13       29.48S
YUMA CO          N/A     48  39  72 W9          N/A
$$


USA.gov is the U.S. government's official web portal to all federal, state and local government web resources and services.